Location: Miami, Florida
(25.6830°N, 80.1700°W)
Time: 23:06:18
(UTC-04:00)

Hubble Space Telescope - Pass Details

Date: 18 November 2017
Orbit: 537 x 541 km, 28.5° (Epoch: 18 November)

Event Time Altitude Azimuth Distance (km) Brightness Sun altitude
Exits shadow 07:04:13 10° 271° (W) 1,777 2.8 -8.6°
Maximum altitude 07:08:17 63° 353° (N) 596 0.9 -7.7°
Drops below altitude 10° 07:12:23 10° 75° (ENE) 1,782 4.4 -6.9°
Sets 07:14:39 0° 79° (ENE) 2,674 5.5 -6.4°
